Saranac Lake, NY

2:02 AM EST on December 17, 2017 (GMT -0500)
Adirondack Regional

Weather History for KSLK - March, 2012

Change the Weather History Date:

Wednesday, March 21, 2012

  Actual Average Record
Temperature  
Mean Temperature 56 °F 26 °F  
Max Temperature 77 °F 38 °F 77 °F (2012)
Min Temperature 34 °F 15 °F -16 °F (2007)
Degree Days  
Heating Degree Days 9 38  
Month to date heating degree days 606 897  
Since 1 July heating degree days 6354 7602  
Cooling Degree Days 0 0  
Month to date cooling degree days 0 0  
Year to date cooling degree days 0 0  
Growing Degree Days 4 (Base 50)    
Moisture  
Dew Point 41 °F    
Average Humidity 66    
Maximum Humidity 100    
Minimum Humidity 31    
Precipitation  
Precipitation 0.00 in 0.08 in 0.78 in (1990)
Month to date precipitation 1.31 1.41  
Year to date precipitation 5.00 5.15  
Sea Level Pressure  
Sea Level Pressure 30.28 in    
Wind  
Wind Speed 3 mph (SW)    
Max Wind Speed 10 mph    
Max Gust Speed 15 mph    
Visibility 7 miles    
Events Fog    
T = Trace of Precipitation, MM = Missing Value Source: NWS Daily Summary

Daily Weather History Graph

Daily Weather History Graph

Search for Another Location

Airport or City:

Trip Planner

Search our weather history database for the weather conditions in past years. The results will help you decide how hot, cold, wet, or windy it might be!

Date:

Astronomy

Mar. 21, 2012 Rise Set
Actual Time 6:57 AM EDT 7:11 PM EDT
Civil Twilight 6:28 AM EDT 7:40 PM EDT
Nautical Twilight 5:54 AM EDT 8:14 PM EDT
Astronomical Twilight 5:19 AM EDT 8:49 PM EDT
Moon 6:07 AM EDT (3/21) 6:35 PM EDT (3/21)
Length of Visible Light 13h 11m
Length of Day
12h 13m
Waning Crescent, 1% of the Moon is Illuminated
Mar 21
Waning Crescent
Mar 22
New
Mar 30
First Quarter
Apr 6
Full
Apr 13
Last Quarter

Hourly Weather History & Observations

Time (EDT) Temp. Dew Point Humidity Pressure Visibility Wind Dir Wind Speed Gust Speed Precip Events Conditions
12:51 AM 41.0 °F 39.0 °F 93% 30.28 in 8.0 mi Calm Calm - N/A   Clear
1:51 AM 39.0 °F 37.0 °F 93% 30.28 in 8.0 mi Calm Calm - N/A   Clear
2:51 AM 39.0 °F 36.0 °F 89% 30.29 in 10.0 mi Calm Calm - N/A   Partly Cloudy
3:51 AM 37.0 °F 35.1 °F 93% 30.28 in 6.0 mi Calm Calm - N/A   Mostly Cloudy
4:12 AM 37.4 °F 35.6 °F 93% 30.28 in 8.0 mi Calm Calm - N/A   Scattered Clouds
4:24 AM 37.4 °F 35.6 °F 93% 30.27 in 9.0 mi Calm Calm - N/A   Mostly Cloudy
4:51 AM 35.1 °F 33.1 °F 92% 30.29 in 6.0 mi Calm Calm - N/A   Mostly Cloudy
5:34 AM 35.6 °F 33.8 °F 93% 30.29 in 1.2 mi Calm Calm - N/A   Overcast
5:38 AM 35.6 °F 33.8 °F 93% 30.29 in 0.2 mi Calm Calm - N/A Fog Fog
5:51 AM 35.1 °F 33.1 °F 92% 30.31 in 0.5 mi Calm Calm - N/A Fog Fog
6:11 AM 33.8 °F 33.8 °F 100% 30.30 in 0.2 mi Calm Calm - N/A Fog Fog
6:51 AM 34.0 °F 33.1 °F 96% 30.33 in 0.2 mi Calm Calm - N/A Fog Fog
7:51 AM 36.0 °F 36.0 °F 100% 30.35 in 0.2 mi Calm Calm - N/A Fog Fog
8:24 AM 41.0 °F 39.2 °F 93% 30.33 in 0.5 mi Calm Calm - N/A Fog Fog
8:33 AM 44.6 °F 42.8 °F 93% 30.33 in 2.5 mi Calm Calm - N/A   Mostly Cloudy
8:37 AM 44.6 °F 42.8 °F 93% 30.33 in 7.0 mi Calm Calm - N/A   Scattered Clouds
8:51 AM 48.2 °F 46.4 °F 93% 30.33 in 10.0 mi SW 3.5 mph - N/A   Partly Cloudy
9:51 AM 61.0 °F 50.0 °F 67% 30.35 in 10.0 mi SSW 5.8 mph - N/A   Clear
11:51 AM 68.0 °F 50.0 °F 52% 30.32 in 10.0 mi WSW 9.2 mph - N/A   Clear
12:51 PM 71.6 °F 48.2 °F 43% 30.28 in 10.0 mi Variable 6.9 mph - N/A   Clear
1:51 PM 73.9 °F 46.9 °F 38% 30.25 in 10.0 mi West 9.2 mph - N/A   Clear
2:51 PM 75.0 °F 45.0 °F 34% 30.23 in 10.0 mi SW 9.2 mph - N/A   Clear
3:51 PM 75.9 °F 44.1 °F 32% 30.22 in 10.0 mi WSW 6.9 mph - N/A   Clear
4:51 PM 75.9 °F 43.0 °F 31% 30.21 in 10.0 mi SSW 6.9 mph - N/A   Clear
5:51 PM 75.0 °F 44.1 °F 33% 30.21 in 10.0 mi SW 5.8 mph - N/A   Clear
6:51 PM 70.0 °F 45.0 °F 41% 30.22 in 10.0 mi Calm Calm - N/A   Clear
7:51 PM 55.0 °F 46.0 °F 72% 30.23 in 10.0 mi Calm Calm - N/A   Clear
8:51 PM 50.0 °F 43.0 °F 77% 30.23 in 10.0 mi Calm Calm - N/A   Clear
9:51 PM 51.1 °F 44.1 °F 77% 30.23 in 10.0 mi Calm Calm - N/A   Clear
10:51 PM 45.0 °F 41.0 °F 86% 30.23 in 10.0 mi Calm Calm - N/A   Clear
11:51 PM 44.1 °F 39.9 °F 85% 30.22 in 10.0 mi Calm Calm - N/A   Clear